METAR-Geschichte Noord Nederlandse Zweefvliegclub (NL-0036)

28. September 2022

Uhrzeit Code Wetter Temp. Sichtweite Wolkendecke Wind METAR/SPECI
09:20
I
8 °C 6 km 500 ft Var Var 2 kt METAR ETWM 280720Z VRB02KT 6000 FEW002 BKN005 08/07 Q0995 YLO
08:20
I
7 °C 5 km 600 ft Var Var 1 kt METAR ETWM 280620Z VRB01KT 5000 BR FEW003 BKN006 07/07 Q0994 YLO
07:46
I
7 °C 5 km 600 ft 300° 300° 1 kt METAR ETWM 280546Z 30001KT 5000 BR FEW003 BKN006 07/07 Q0994 YLO
07:20
I
6 °C 4,5 km 700 ft 340° 340° 1 kt METAR ETWM 280520Z 34001KT 4500 BCFG FEW003 BKN007 06/06 Q0994 GRN
06:50
L
6 °C 50 m 600 ft Var 000° 0 kt METAR ETWM 280450Z 00000KT 0050 FG SCT003 BKN006 06/06 Q0994 RED
06:20
L
5 °C 50 m 9.800 ft Var 000° 0 kt METAR ETWM 280420Z 00000KT 0050 FG SCT017 BKN098 05/05 Q0994 RED
05:20
L
7 °C 0 m - 200° 200° 1 kt METAR ETWM 280320Z AUTO 20001KT //// // ////// 07/07 Q0994 ///
04:20
L
7 °C 0 m - Var 000° 0 kt METAR ETWM 280220Z AUTO 00000KT //// // ////// 07/06 Q0994 ///
03:20
L
7 °C 0 m - 350° 350° 1 kt METAR ETWM 280120Z AUTO 35001KT //// // ////// 07/06 Q0994 ///
02:20
L
7 °C 0 m - Var 000° 0 kt METAR ETWM 280020Z AUTO 00000KT //// // ////// 07/06 Q0994 ///
01:20
L
7 °C 0 m - Var Var 2 kt METAR ETWM 272320Z AUTO VRB02KT //// // ////// 07/07 Q0995 ///
00:20
L
5 °C 0 m - Var 000° 0 kt METAR ETWM 272220Z AUTO 00000KT //// // ////// 05/05 Q0995 ///

27. September 2022

Uhrzeit Code Wetter Temp. Sichtweite Wolkendecke Wind METAR/SPECI
23:20
L
6 °C 0 m - Var 000° 0 kt METAR ETWM 272120Z AUTO 00000KT //// // ////// 06/05 Q0995 ///
22:20
L
8 °C 0 m - Var Var 1 kt METAR ETWM 272020Z AUTO VRB01KT //// // ////// 08/07 Q0996 ///
21:20
L
8 °C 0 m - 210° 210° 3 kt METAR ETWM 271920Z AUTO 21003KT //// // ////// 08/07 Q0996 ///
20:20
L
8 °C 0 m - 220° 220° 3 kt METAR ETWM 271820Z AUTO 22003KT //// // ////// 08/07 Q0996 ///
19:20
L
9 °C 0 m - 250° 250° 4 kt METAR ETWM 271720Z AUTO 25004KT //// // ////// 09/07 Q0996 ///
18:20
L
10 °C 0 m - 280° 280° 4 kt METAR ETWM 271620Z AUTO 28004KT //// // ////// 10/07 Q0996 ///
17:20
L
11 °C 0 m - 250° 250° 8 - 18 kt METAR ETWM 271520Z AUTO 25008G18KT //// // ////// 11/07 Q0996 ///
16:20
V
12 °C 10 km+ 15.000 ft 260° 260° 7 kt METAR ETWM 271420Z 26007KT 9999 VCSH SCT020CB SCT062 BKN150 12/07 Q0995 BLU
15:20
V
12 °C 10 km+ 22.000 ft 250° 250° 8 kt METAR ETWM 271320Z 25008KT 9999 VCSH FEW018CB BKN220 12/08 Q0995 BLU+
14:20
V
12 °C 10 km+ 23.000 ft 260° 260° 7 kt METAR ETWM 271220Z 26007KT 9999 VCSH SCT020CB SCT190 BKN230 12/08 Q0995 BLU+
13:20
V
10 °C 10 km+ 20.000 ft 260° 260° 6 kt METAR ETWM 271120Z 26006KT 9999 VCSH FEW012 FEW020CB BKN200 10/08 Q0995 BLU+
12:20
V
12 °C 10 km+ 14.000 ft 240° 240° 6 kt METAR ETWM 271020Z 24006KT 9999 -SHRA FEW012 SCT018CB BKN140 12/09 Q0995 BLU
11:20
V
11 °C 10 km+ 3.600 ft 240° 240° 6 kt METAR ETWM 270920Z 24006KT 9999 FEW010 FEW020TCU BKN036 11/09 Q0995 BLU
10:20
V
10 °C 10 km+ 4.700 ft 250° 250° 6 kt METAR ETWM 270820Z 25006KT 9999 FEW018TCU BKN047 BKN140 10/08 Q0995 BLU
09:20
V
9 °C 10 km+ 4.600 ft 240° 240° 6 kt METAR ETWM 270720Z 24006KT 9999 FEW015TCU BKN046 BKN085 09/08 Q0994 BLU
08:20
V
8 °C 10 km+ 18.000 ft 240° 240° 5 kt METAR ETWM 270620Z 24005KT 9999 FEW015 SCT043 BKN180 08/07 Q0994 BLU
07:20
V
8 °C 10 km+ 4.500 ft 250° 250° 5 kt METAR ETWM 270520Z 25005KT 9999 VCSH FEW020 BKN045 BKN160 08/07 Q0994 BLU
06:20
V
9 °C 10 km+ 5.800 ft 260° 260° 4 kt METAR ETWM 270420Z 26004KT 9999 FEW022 BKN058 BKN130 09/08 Q0993 BLU
05:20
L
9 °C 0 m - 270° 270° 4 kt METAR ETWM 270320Z AUTO 27004KT //// // ////// 09/08 Q0993 ///
04:20
L
9 °C 0 m - 250° 250° 4 kt METAR ETWM 270220Z AUTO 25004KT //// // ////// 09/08 Q0993 ///
03:20
L
10 °C 0 m - 260° 260° 4 kt METAR ETWM 270120Z AUTO 26004KT //// // ////// 10/09 Q0993 ///
02:20
L
10 °C 0 m - Var Var 3 kt METAR ETWM 270020Z AUTO VRB03KT //// // ////// 10/09 Q0993 ///
01:20
L
10 °C 0 m - 260° 260° 3 kt METAR ETWM 262320Z AUTO 26003KT //// // ////// 10/10 Q0993 ///
00:20
L
10 °C 0 m - Var Var 3 kt METAR ETWM 262220Z AUTO VRB03KT //// // ////// 10/10 Q0993 ///

26. September 2022

Uhrzeit Code Wetter Temp. Sichtweite Wolkendecke Wind METAR/SPECI
23:20
L
11 °C 0 m - 260° 260° 4 kt METAR ETWM 262120Z AUTO 26004KT //// // ////// 11/10 Q0993 ///
22:20
L
11 °C 0 m - 240° 240° 3 kt METAR ETWM 262020Z AUTO 24003KT //// // ////// 11/10 Q0993 ///
21:20
L
11 °C 0 m - 230° 230° 3 kt METAR ETWM 261920Z AUTO 23003KT //// // ////// 11/11 Q0994 ///
20:20
L
11 °C 0 m - 220° 220° 3 kt METAR ETWM 261820Z AUTO 22003KT //// // ////// 11/11 Q0994 ///
19:20
L
11 °C 0 m - 200° 200° 5 kt METAR ETWM 261720Z AUTO 20005KT //// // ////// 11/11 Q0994 ///
18:20
L
11 °C 0 m - 210° 210° 6 kt METAR ETWM 261620Z AUTO 21006KT //// // ////// 11/11 Q0994 ///
17:20
L
11 °C 0 m - 190° 190° 8 kt METAR ETWM 261520Z AUTO 19008KT //// // ////// 11/11 Q0995 ///
16:20
L
11 °C 0 m - 190° 190° 7 kt METAR ETWM 261420Z AUTO 19007KT //// // ////// 11/11 Q0996 ///
15:20
L
11 °C 0 m - 180° 180° 9 kt METAR ETWM 261320Z AUTO 18009KT //// // ////// 11/10 Q0996 ///
14:20
I
11 °C 4,5 km 1.200 ft 190° 190° 9 kt METAR ETWM 261220Z 19009KT 4500 -RADZ BR SCT007 BKN012 11/10 Q0997 GRN
13:20
M
11 °C 6 km 1.200 ft 180° 180° 9 kt METAR ETWM 261120Z 18009KT 6000 -RA SCT008 BKN012 11/10 Q0998 GRN
12:20
M
11 °C 10 km+ 1.600 ft 180° 180° 10 kt METAR ETWM 261020Z 18010KT 9999 -RA BKN016 BKN052 11/09 Q0998 WHT
11:20
M
11 °C 10 km+ 2.700 ft 180° 180° 7 kt METAR ETWM 260920Z 18007KT 9999 -RA FEW018 BKN027 BKN057 11/09 Q0999 BLU
10:20
M
11 °C 10 km+ 2.900 ft 190° 190° 9 - 21 kt METAR ETWM 260820Z 19009G21KT 9999 -RA BKN029 11/08 Q1000 BLU
09:20
V
11 °C 10 km+ 5.800 ft 200° 200° 7 kt METAR ETWM 260720Z 20007KT 9999 SCT048 BKN058 BKN099 11/08 Q1000 BLU
Ältere Daten

Wir und Dritte verfolgen dein Internetverhalten auf unserer Website mit Cookies. Wenn du fortfährst, gehen wir davon aus, dass du mit unserer Cookie-Richtlinie einverstanden bist. Mehr erfahren